Flag Weather past 2 weeks in Tyler, Texas, U.S.A.

Now
44 °F

Clear.


Feels Like: 38 °F
Forecast: 39 / 56 °F
Wind: 12 mph from North

Location: Tyler Pounds Field

Current Time: Nov 27, 2014 at 4:55:22 AM

Latest Report: Nov 27, 2014 at 3:53 AM


Visibility: 10 mi

Pressure: 30.43 "Hg

Humidity: 53%

Dew point: 28 °F

Location of TylerLocation

Historic Weather in Tyler — Graph

°F

Tyler temperature yesterday

Maximum temperature yesterday: 67 °F (at 2:53 PM)
Minimum temperature yesterday: 40 °F (at 6:53 AM)
Average temperature yesterday: 53 °F

Past Weeks' High & Low Weather Summary

 TemperatureHumidityPressure
High76 °F (Nov 23, 2:53 PM)93% (Nov 15, 11:53 PM)30.54 "Hg (Nov 15, 11:53 PM)
Low25 °F (Nov 17, 6:53 AM)20% (Nov 24, 2:53 PM)29.39 "Hg (Nov 23, 1:53 PM)
Average47 °F63%30.17 "Hg
* Reported Nov 12 3:53 AM — Nov 27 3:53 AM, Tyler, Weather by CustomWeather, © 2014

Note: Actual official high and low records may vary slightly from our data, if they occured in-between our weather recording intervals... More about our weather records

Advertising

Tyler weather history for previous 24 hours

 ConditionsComfort  
Time TempWeatherWind HumidityBarometerVisibility
3:53 AM
Nov 27
44 °FClear.12 mph53%30.43 "Hg10 mi
2:53 AM45 °FClear.9 mph53%30.41 "Hg10 mi
1:53 AM47 °FClear.8 mph50%30.39 "Hg10 mi
12:53 AM49 °FClear.9 mph48%30.37 "Hg10 mi
11:53 PM
Nov 26
49 °FClear.9 mph55%30.35 "Hg10 mi
10:53 PM50 °FClear.7 mph54%30.34 "Hg10 mi
9:53 PM51 °FClear.No wind54%30.32 "Hg10 mi
8:53 PM50 °FClear.No wind59%30.29 "Hg10 mi
7:53 PM52 °FClear.3 mph53%30.26 "Hg10 mi
6:53 PM56 °FClear.6 mph44%30.24 "Hg10 mi
5:53 PM58 °FClear.7 mph39%30.22 "Hg10 mi
4:53 PM62 °FSunny.7 mph32%30.19 "Hg10 mi
3:53 PM66 °FSunny.7 mph25%30.16 "Hg10 mi
2:53 PM67 °FSunny.8 mph23%30.15 "Hg10 mi
1:53 PM66 °FSunny.6 mph25%30.12 "Hg10 mi
12:53 PM64 °FSunny.6 mph27%30.13 "Hg10 mi
11:53 AM62 °FSunny.10 mph29%30.14 "Hg10 mi
10:53 AM60 °FSunny.12 mph31%30.14 "Hg10 mi
9:53 AM57 °FSunny.15 mph37%30.13 "Hg10 mi
8:53 AM53 °FSunny.13 mph43%30.11 "Hg10 mi
7:53 AM46 °FSunny.9 mph61%30.09 "Hg10 mi
6:53 AM40 °FClear.8 mph73%30.08 "Hg10 mi
5:53 AM43 °FClear.10 mph65%30.08 "Hg10 mi
4:53 AM41 °FClear.7 mph67%30.08 "Hg10 mi
Weather by CustomWeather, © 2014

See weather overviewHow to use our weather pages